Content
SEND FEEDBACK

Daily
Averages
Monthly
Summary
United States of America

EARTH CITY, MISSOURI


Home > North America > United States > Missouri
Elevation: 476 feet     Latitude: 38 46N     Longitude: 090 30W

WEATHER
 
SELECT A DAY
Number of Records: 207,304;   Date Range: 1/1/95 - 11/19/14
 
SHARE

PRINT THIS DATA

[ ← Previous Day ]
WEATHER ALMANAC - JANUARY 29, 2013
[ Next Day → ]
[ °C ]   °F
Weather ElementAverageHighLow
Temperature61.1 °F68 °F (9:51 am)53.6 °F (9:10 pm)
Dewpoint55.8 °F60.8 °F (12:57 pm)51.1 °F (11:51 pm)
Humidity83.5 %100 % (9:34 pm)68 % (10:02 am)
Barometer29.60 in29.79 in (1:51 am)29.45 in (11:51 pm)
Wind Speed11.8 mph25.3 mph (4:33 pm)
Wind Gust35.7 mph (4:33 pm)
Weather ElementAverage
Visibility6.1 mi
Wind DirectionSSW (198.8 °)

Weather ElementTotal
Precipitation2.99 in
Heating Degree Days4.2 (Base 65)
Growing Degree Days10.8 (Base 50)
Averaged from 40 records on January 29, 2013
WEATHER CONDITIONS BREAKOUT
WIND DIRECTION BREAKOUT
WEATHER BY HOUR - JANUARY 29, 2013
[ °C ]   °F
Local TimeTemperatureDewpointHumidityBarometerVisibilityWind DirectionWind SpeedGust SpeedPrecipitationEventsConditions
1:51 AM64.9 °F57.9 °F78 %29.79 in10.0 miSouth (170°)16.1 mph25.3 mphMostly Cloudy
2:51 AM66.0 °F57.9 °F75 %29.78 in10.0 miSouth (190°)12.7 mph21.9 mphMostly Cloudy
3:51 AM66.0 °F57.9 °F75 %29.76 in10.0 miSouth (180°)15.0 mph23.0 mphMostly Cloudy
4:51 AM64.9 °F57.9 °F78 %29.75 in10.0 miSouth (190°)13.8 mph21.9 mphOvercast
5:51 AM66.0 °F57.9 °F75 %29.75 in9.0 miSouth (190°)11.5 mphOvercast
6:51 AM66.2 °F57.2 °F73 %29.75 in10.0 miSouth (180°)12.7 mph23.0 mphOvercast
7:41 AM66.2 °F57.2 °F73 %29.75 in10.0 miSouth (180°)9.2 mphOvercast
7:51 AM66.9 °F57.9 °F73 %29.73 in10.0 miSouth (190°)12.7 mphOvercast
8:51 AM66.9 °F57.9 °F73 %29.72 in9.0 miSouth (170°)17.3 mphOvercast
9:51 AM68.0 °F57.9 °F70 %29.70 in9.0 miSouth (180°)13.8 mph27.6 mphOvercast
10:02 AM68.0 °F57.2 °F68 %29.72 in10.0 miSouth (180°)17.3 mph21.9 mphOvercast
10:29 AM68.0 °F57.2 °F68 %29.71 in10.0 miSouth (180°)18.4 mph25.3 mphOvercast
10:51 AM68.0 °F57.9 °F70 %29.68 in10.0 miSouth (190°)19.6 mph28.8 mphOvercast
11:49 AM64.4 °F59.0 °F83 %29.67 in4.0 miSouth (170°)11.5 mph0.00 inRainLight Rain
11:51 AM64.9 °F59.0 °F81 %29.65 in3.0 miSSE (160°)9.2 mph0.00 inRainLight Rain
12:51 PM64.0 °F60.1 °F87 %29.61 in3.0 miSSE (160°)9.2 mph0.01 inRainLight Rain
12:57 PM64.4 °F60.8 °F88 %29.61 in5.0 miSouth (170°)10.4 mph0.00 inRainLight Rain
1:51 PM66.0 °F59.0 °F78 %29.53 in8.0 miSSE (160°)13.8 mph0.00 inOvercast
2:51 PM66.9 °F57.9 °F73 %29.51 in10.0 miSouth (170°)15.0 mph25.3 mph0.00 inOvercast
3:51 PM68.0 °F57.9 °F70 %29.47 in10.0 miSouth (170°)17.3 mph25.3 mph0.00 inOvercast
4:33 PM64.4 °F55.4 °F73 %29.51 in8.0 miWNW (290°)25.3 mph35.7 mph0.00 inRainLight Rain
4:41 PM59.0 °F55.4 °F88 %29.52 in2.0 miNW (310°)20.7 mph25.3 mph0.04 inRain-ThunderstormHeavy Thunderstorms and Rain
4:45 PM57.2 °F55.4 °F94 %29.53 in1.5 miWNW (300°)21.9 mph27.6 mph0.12 inRain-ThunderstormHeavy Thunderstorms and Rain
4:51 PM57.9 °F55.0 °F90 %29.52 in2.0 miNW (310°)17.3 mph27.6 mph0.20 inRain-ThunderstormHeavy Thunderstorms and Rain
5:06 PM57.2 °F53.6 °F88 %29.52 in2.0 miNW (320°)16.1 mph25.3 mph0.08 inRain-ThunderstormThunderstorms and Rain
5:35 PM55.4 °F53.6 °F94 %29.56 in2.5 miNW (320°)6.9 mph0.20 inRain-ThunderstormThunderstorms and Rain
5:45 PM55.4 °F53.6 °F94 %29.54 in3.0 miNW (320°)8.1 mph0.25 inRainRain
5:51 PM55.9 °F53.1 °F90 %29.52 in3.0 miNorth (350°)8.1 mph0.28 inRainRain
6:16 PM55.4 °F53.6 °F94 %29.51 in6.0 miNE (40°)11.5 mph0.04 inRainLight Rain
6:51 PM55.9 °F53.1 °F90 %29.50 in4.0 miNE (40°)6.9 mph0.13 inRainRain
7:23 PM55.4 °F53.6 °F94 %29.54 in3.0 miNW (310°)5.8 mph0.13 inRainRain
7:30 PM55.4 °F53.6 °F94 %29.53 in2.5 miNW (320°)6.9 mph0.18 inRainRain
7:37 PM55.4 °F53.6 °F94 %29.54 in2.5 miNNW (330°)6.9 mph0.21 inRain-ThunderstormThunderstorms and Rain
7:51 PM55.0 °F53.1 °F93 %29.52 in2.5 miNW (310°)10.4 mph0.29 inRain-ThunderstormThunderstorms and Rain
8:51 PM55.0 °F52.0 °F89 %29.54 in2.5 miWNW (300°)3.5 mph0.25 inRain-ThunderstormThunderstorms and Rain
9:10 PM53.6 °F51.8 °F94 %29.56 in3.0 miCalm0.12 inRain-ThunderstormLight Thunderstorms and Rain
9:34 PM53.6 °F53.6 °F100 %29.53 in3.0 miCalm0.18 inRainLight Rain
9:51 PM54.0 °F52.0 °F93 %29.49 in6.0 miCalm0.20 inRainLight Rain
10:51 PM54.0 °F52.0 °F93 %29.46 in7.0 miESE (110°)6.9 mph0.05 inRainLight Rain
11:51 PM54.0 °F51.1 °F90 %29.45 in9.0 miSE (140°)10.4 mph0.03 inRainLight Rain
Hourly data recorded from KSTL, located miles away from Earth City, Missouri







STORIES FROM OUR PARTNERS